EW2027 Weather Reports


Display with metric or nautical units.
time (UTC)temp
F
wind
direction
speed
MPH
gust
MPH
rain 1hr
in
rain 24hr
in
rain mn
in
humidity
%
barometer
mb
20260510033204 73 97 1.0 7.0 0.00 0.01 0.01 49 1013.2
20260510030703 73 107 3.0 7.0 0.00 0.01 0.01 50 1012.7
20260510023203 74 109 3.0 8.0 0.00 0.01 0.01 47 1012.2
20260510020704 75 78 2.0 6.0 0.00 0.01 0.01 45 1011.7
20260510020204 75 101 2.0 7.0 0.00 0.01 0.01 44 1011.2
20260510013703 76 95 4.0 8.0 0.00 0.01 0.01 41 1010.4
20260510013203 77 93 3.0 7.0 0.00 0.01 0.01 41 1010.3
20260510003704 81 151 4.0 7.0 0.00 0.01 0.01 35 1010.0
20260510003203 81 126 4.0 12.0 0.00 0.01 0.01 35 1010.1
20260510000703 82 147 6.0 12.0 0.00 0.01 0.01 33 1010.0
20260510000204 83 148 7.0 13.0 0.00 0.01 0.01 34 1010.0
20260509233703 84 161 6.0 15.0 0.00 0.01 0.01 33 1010.1
20260509233204 84 125 6.0 14.0 0.00 0.01 0.01 32 1010.0
20260509230704 84 136 9.0 14.0 0.00 0.01 0.01 32 1010.1
20260509223704 85 137 9.0 13.0 0.00 0.01 0.01 33 1010.3
20260509220704 85 159 6.0 12.0 0.00 0.01 0.01 33 1010.4
20260509220204 85 145 4.0 12.0 0.00 0.01 0.01 33 1010.4
20260509213703 85 117 5.0 8.0 0.00 0.01 0.01 31 1010.6
20260509213204 85 130 3.0 12.0 0.00 0.01 0.01 31 1010.6
20260509210703 85 143 3.0 7.0 0.00 0.01 0.01 31 1010.9
20260509210204 85 149 6.0 13.0 0.00 0.01 0.01 31 1011.0
20260509203703 85 137 7.0 13.0 0.00 0.01 0.01 32 1011.3
20260509203204 85 109 3.0 12.0 0.00 0.01 0.01 31 1011.3
20260509200704 85 116 3.0 10.0 0.00 0.01 0.01 32 1011.6
20260509193704 84 126 5.0 9.0 0.00 0.01 0.01 30 1012.1
20260509193203 84 141 2.0 12.0 0.00 0.01 0.01 34 1012.2
20260509190704 84 168 3.0 8.0 0.00 0.01 0.01 34 1012.2
20260509190203 84 156 4.0 12.0 0.00 0.01 0.01 35 1012.2
20260509183704 82 145 1.0 8.0 0.00 0.01 0.01 37 1012.5
20260509183203 83 160 2.0 10.0 0.00 0.01 0.01 38 1012.7
20260509180203 82 161 5.0 12.0 0.00 0.01 0.01 42 1013.3
20260509173703 81 155 3.0 12.0 0.00 0.01 0.01 46 1013.3
20260509173203 81 136 5.0 12.0 0.00 0.01 0.01 42 1013.4
20260509170704 79 170 2.0 8.0 0.00 0.01 0.01 41 1013.6
20260509170203 80 134 4.0 10.0 0.00 0.01 0.01 36 1013.6
20260509163703 81 197 3.0 9.0 0.00 0.01 0.01 45 1014.0
20260509163204 81 125 4.0 8.0 0.00 0.01 0.01 43 1014.0
20260509160703 79 143 4.0 6.0 0.00 0.01 0.01 51 1014.0
20260509160204 78 160 1.0 6.0 0.00 0.01 0.01 54 1013.9
20260509153704 76 143 3.0 7.0 0.00 0.01 0.01 55 1013.5
20260509153204 76 170 2.0 6.0 0.00 0.01 0.01 55 1013.5
20260509150703 74 156 3.0 5.0 0.00 0.01 0.01 66 1013.4
20260509150204 74 150 2.0 3.0 0.00 0.01 0.01 66 1013.5
20260509143703 70 110 0.0 2.0 0.00 0.01 0.01 75 1013.5
20260509140704 65 111 1.0 2.0 0.00 0.01 0.01 89 1013.5
20260509140203 64 109 1.0 2.0 0.00 0.01 0.01 90 1013.4
20260509133203 61 108 1.0 2.0 0.00 0.01 0.01 92 1013.4
20260509130704 58 108 1.0 2.0 0.00 0.01 0.01 92 1013.4
20260509130204 58 108 0.0 3.0 0.00 0.01 0.01 92 1013.3
20260509123704 54 111 1.0 2.0 0.00 0.01 0.01 92 1012.9
20260509120704 52 113 0.0 0.0 0.01 0.01 0.01 91 1012.6
20260509120204 52 113 0.0 0.0 0.01 0.01 0.01 90 1012.6
20260509113703 52 113 0.0 0.0 0.01 0.01 0.01 90 1012.5
20260509113203 52 113 0.0 1.0 0.01 0.01 0.01 90 1012.3
20260509110704 53 113 0.0 0.0 0.00 0.00 0.00 90 1012.2
20260509110203 53 113 0.0 0.0 0.00 0.00 0.00 90 1012.1
20260509103703 53 114 0.0 0.0 0.00 0.00 0.00 90 1012.3
20260509100703 55 116 0.0 0.0 0.00 0.00 0.00 90 1012.4
20260509093703 56 118 0.0 0.0 0.00 0.00 0.00 90 1012.6
20260509093204 56 118 0.0 1.0 0.00 0.00 0.00 90 1012.6
20260509090703 57 113 1.0 2.0 0.00 0.00 0.00 90 1012.7
20260509090203 57 113 1.0 2.0 0.00 0.00 0.00 90 1012.7
20260509083704 56 115 0.0 0.0 0.00 0.00 0.00 90 1012.9
20260509083203 56 116 0.0 0.0 0.00 0.00 0.00 90 1012.9
20260509080703 56 118 0.0 0.0 0.00 0.00 0.00 89 1013.1
20260509073703 57 118 0.0 1.0 0.00 0.00 0.00 89 1013.2
20260509063703 58 119 1.0 2.0 0.00 0.00 0.00 88 1013.1
20260509063203 58 118 1.0 3.0 0.00 0.00 0.00 88 1013.0
20260509060704 59 118 0.0 0.0 0.00 0.00 0.00 87 1013.2
20260509060203 59 118 0.0 0.0 0.00 0.00 0.00 87 1013.2
20260509053703 60 119 0.0 0.0 0.00 0.00 0.00 87 1013.2
20260509053203 60 119 0.0 3.0 0.00 0.00 0.00 87 1013.2
20260509050704 60 119 0.0 2.0 0.00 0.00 0.00 86 1013.2
20260509050203 61 108 0.0 1.0 0.00 0.00 0.00 86 1013.3
20260509043704 61 89 0.0 1.0 0.00 0.00 0.00 85 1013.4
20260509043204 61 95 0.0 1.0 0.00 0.00 0.00 85 1013.5
20260509040705 62 110 0.0 0.0 0.00 0.00 0.00 84 1013.3
20260509040204 62 35 0.0 2.0 0.00 0.00 0.00 84 1013.3
20260509033704 63 93 1.0 2.0 0.00 0.00 0.00 83 1013.0